Temp
72 72 72 72 73 72 71 71 73 73 72 72 72 72 73 73 73 72 72 72 71 71 71 71 72 72 71 72 72 70 70 69 68 70 70 74 74 75 77 76 77 77 78
70 71 71 71 71 71 71 72 74 72 72 72 72 71 72 73 73 72 72 74 72 72 72 71 71 75 71 71 71 70 71 70 69 68 69 71 72 74 74 75 78 81 77
70 69 68 69 70 70 71 72 72 72 71 72 72 71 71 73 73 73 73 73 72 73 73 72 72 71 70 70 70 70 70 72 70 69 68 69 70 71 72 74 75 74 78
69 68 68 69 69 68 69 70 72 72 71 71 72 72 72 72 73 73 73 73 73 74 74 73 72 72 71 71 71 70 70 70 69 68 68 68 68 71 70 70 71 70 72
68 68 68 68 70 70 70 68 70 71 72 72 72 72 72 73 76 73 73 73 73 73 74 74 74 74 73 72 74 72 71 70 69 68 68 67 68 68 68 68 68 67 68
68 68 69 70 69 69 69 68 69 70 70 72 73 73 72 77 72 70 73 73 73 72 73 73 74 74 74 70 69 70 72 71 70 68 68 68 68 68 68 68 66 65 65
65 65 65 69 69 69 70 68 68 70 70 70 70 71 72 73 68 67 69 74 74 74 72 73 74 80 73 75 72 69 68 67 70 72 69 69 68 70 68 67 66 66 65
61 62 63 65 66 67 67 68 68 69 68 70 70 70 71 72 65 63 66 70 71 72 74 74 74 75 74 74 73 73 74 74 72 70 72 75 73 76 71 72 70 68 68
59 61 61 62 63 64 65 66 65 65 67 68 69 69 70 71 64 61 63 69 69 71 72 73 74 75 70 66 70 72 74 74 72 66 67 68 68 67 69 68 69 66 70
55 57 60 62 62 63 62 63 64 63 63 65 67 69 67 69 63 59 61 68 68 70 70 70 66 72 66 62 69 72 71 74 72 73 72 70 66 68 65 69 72 68 70
53 55 56 58 60 60 59 60 60 62 61 64 65 66 67 64 66 58 58 67 68 69 69 70 70 60 58 58 58 68 70 68 68 68 70 72 73 71 72 69 70 72 71
51 52 53 54 58 59 58 60 60 59 60 60 57 58 60 63 60 59 56 58 61 66 67 69 69 59 56 56 59 61 60 60 64 66 67 70 71 73 75 74 73 72 76
49 48 49 52 54 54 54 55 58 58 58 58 58 54 56 58 58 57 58 58 59 63 64 61 56 56 57 60 60 60 60 65 65 65 67 70 73 76 77 74 74 74 74
46 46 47 47 49 51 53 54 53 53 53 54 55 54 55 55 56 55 55 56 59 60 61 61 59 58 57 59 62 66 67 66 66 66 67 70 71 71 72 75 74 75 70
45 45 44 45 45 47 48 49 51 50 49 48 50 50 51 53 54 48 46 48 48 49 51 57 58 58 59 59 61 63 65 67 67 68 68 68 70 71 72 73 72 73 70
43 43 43 43 43 45 44 46 50 50 49 47 45 46 53 51 46 45 43 43 42 45 54 55 56 56 57 58 59 61 62 64 66 67 68 70 70 70 70 70 68 68 68
41 42 41 43 43 43 43 44 43 47 49 47 46 46 45 44 45 45 42 43 43 45 51 52 54 55 56 58 63 63 60 59 61 62 62 64 66 68 69 70 70 69 68
41 48 40 41 41 41 41 42 43 43 43 45 48 47 46 45 44 44 41 44 53 52 50 52 54 56 59 60 58 56 56 55 56 56 58 61 62 64 66 68 69 69 70
41 41 40 40 40 42 40 40 41 41 41 42 44 45 46 45 44 44 45 49 51 55 58 57 57 56 56 54 52 52 52 53 54 56 55 56 58 59 60 64 67 60 62
41 50 45 38 38 38 38 39 39 39 39 40 40 41 44 43 43 44 46 47 48 51 55 55 55 54 53 52 51 51 52 53 53 54 54 54 55 56 58 60 61 63 66
39 39 46 38 37 37 37 36 37 37 37 38 39 42 42 40 40 42 43 44 45 46 47 51 53 52 51 51 51 50 49 50 52 52 52 53 54 54 56 56 57 59 63
38 38 38 36 37 36 36 36 36 37 38 40 40 42 42 40 40 41 42 44 47 47 47 47 50 52 51 50 50 49 49 48 48 50 50 51 51 52 52 53 55 57 59
38 38 37 36 36 39 35 36 36 36 37 38 38 39 40 38 39 41 40 41 43 45 46 46 47 48 49 48 46 47 47 47 48 49 48 48 48 49 50 50 52 53 55
38 38 37 36 35 35 34 33 34 37 36 36 38 39 39 39 38 39 40 40 41 43 45 45 46 47 47 46 46 45 46 47 47 46 46 46 45 45 46 47 49 52 54
37 37 36 35 34 33 33 32 33 33 37 38 38 38 38 38 37 37 38 38 38 39 41 42 45 45 45 45 45 45 43 38 40 40 42 40 40 42 43 44 47 49 51
37 37 36 35 33 32 31 31 31 36 37 38 38 37 36 36 36 36 37 37 38 38 40 41 41 42 43 43 42 40 36 34 36 35 37 38 39 41 43 45 47 50 52
MSLP
1018.16 1018.47 1018.79 1019.00 1019.19 1019.47 1019.61 1019.67 1019.79 1019.99 1020.11 1020.33 1020.37 1020.67 1020.87 1021.05 1020.97 1021.37 1021.67 1021.81 1022.03 1022.15 1022.35 1022.52 1022.59 1022.56 1022.51 1022.54 1022.43 1022.43 1022.42 1022.42 1022.57 1022.08 1021.61 1020.85 1020.51 1020.25 1019.65 1019.15 1018.91 1018.63 1018.27
1018.55 1018.64 1018.76 1019.07 1019.23 1019.47 1019.53 1019.61 1019.74 1019.70 1019.59 1019.81 1020.23 1020.53 1020.67 1020.93 1021.16 1021.28 1021.59 1021.79 1021.98 1022.03 1022.06 1022.30 1022.24 1022.27 1022.27 1022.31 1022.33 1022.37 1022.33 1022.27 1022.33 1022.31 1021.88 1021.28 1020.72 1020.07 1019.85 1019.41 1018.95 1018.61 1018.40
1018.89 1019.20 1019.50 1019.30 1019.33 1019.50 1019.54 1019.55 1019.74 1019.81 1019.78 1019.80 1020.02 1020.38 1020.53 1020.74 1020.95 1021.10 1021.33 1021.55 1021.76 1021.85 1021.86 1021.92 1021.85 1021.97 1021.95 1021.89 1021.95 1021.95 1021.97 1022.01 1022.00 1022.14 1021.95 1021.37 1020.79 1020.25 1019.91 1019.44 1019.09 1018.67 1018.31
1018.75 1019.11 1019.42 1019.43 1019.42 1019.56 1019.83 1019.82 1019.68 1019.75 1019.86 1019.88 1019.89 1020.09 1020.27 1020.46 1020.65 1020.87 1021.06 1021.18 1021.31 1021.38 1021.41 1021.43 1021.35 1021.42 1021.41 1021.42 1021.53 1021.45 1021.51 1021.59 1021.77 1021.85 1021.71 1021.44 1021.03 1020.36 1020.13 1020.03 1019.47 1018.95 1018.55
1018.85 1018.78 1018.55 1019.11 1019.21 1019.44 1019.75 1020.04 1019.76 1019.71 1019.86 1019.77 1019.80 1019.79 1019.85 1020.11 1020.28 1020.51 1020.63 1020.66 1020.79 1020.81 1020.82 1020.89 1020.78 1020.48 1020.36 1020.61 1020.93 1020.91 1021.15 1021.31 1021.28 1021.43 1021.42 1021.25 1020.90 1020.51 1020.30 1020.06 1020.03 1019.55 1018.76
1018.61 1018.83 1019.00 1019.13 1018.46 1019.08 1019.92 1020.11 1019.89 1019.57 1019.73 1019.87 1019.62 1019.55 1019.66 1019.76 1019.77 1019.87 1020.03 1020.15 1020.21 1020.37 1020.51 1020.27 1020.24 1020.25 1020.30 1019.99 1020.08 1020.07 1020.42 1020.69 1020.57 1020.83 1020.79 1020.75 1020.35 1020.16 1019.97 1019.94 1019.85 1019.77 1019.30
1019.90 1019.85 1019.66 1019.17 1019.13 1019.26 1019.65 1020.25 1019.82 1019.59 1019.75 1019.74 1019.51 1019.35 1019.25 1019.31 1019.35 1019.44 1019.48 1019.63 1019.69 1019.75 1019.84 1020.06 1019.96 1019.87 1019.93 1019.92 1019.83 1019.77 1019.69 1019.55 1019.58 1019.69 1020.00 1019.85 1019.70 1019.39 1019.42 1019.44 1019.31 1019.36 1019.10
1020.74 1020.85 1020.76 1020.38 1020.41 1020.18 1019.93 1019.75 1019.35 1019.69 1019.94 1019.98 1019.73 1019.46 1019.17 1019.05 1019.23 1019.34 1019.23 1019.27 1019.30 1019.24 1019.36 1019.36 1019.51 1019.37 1019.28 1019.42 1019.41 1019.36 1019.18 1018.93 1018.73 1018.85 1018.94 1018.71 1018.54 1018.29 1018.61 1018.51 1018.55 1018.55 1018.30
1021.87 1021.94 1021.70 1021.43 1021.17 1021.06 1020.98 1020.79 1020.62 1020.48 1020.43 1020.30 1019.92 1019.55 1019.30 1019.29 1019.23 1019.17 1019.22 1019.27 1019.14 1018.89 1018.88 1018.81 1018.86 1018.98 1018.87 1018.85 1019.07 1018.95 1018.64 1018.19 1017.77 1017.94 1017.83 1017.65 1017.65 1017.69 1017.88 1018.37 1018.44 1018.53 1018.02
1023.10 1022.76 1022.40 1022.02 1021.99 1022.03 1021.80 1021.49 1021.40 1021.26 1020.63 1020.42 1019.98 1019.54 1019.52 1019.75 1019.73 1019.33 1019.13 1019.18 1019.27 1018.79 1018.40 1018.26 1018.26 1018.20 1018.25 1018.37 1018.51 1018.51 1018.33 1017.75 1017.60 1017.34 1017.38 1017.22 1017.24 1017.17 1017.34 1017.63 1017.63 1017.78 1017.57
1023.28 1023.05 1022.77 1022.52 1022.34 1022.24 1021.99 1022.01 1021.81 1021.33 1021.01 1020.43 1020.25 1020.16 1019.81 1019.98 1019.94 1019.48 1019.45 1019.47 1019.29 1018.89 1018.68 1018.42 1018.34 1018.47 1018.44 1018.12 1017.81 1017.91 1017.66 1017.52 1017.45 1017.38 1017.26 1016.94 1016.69 1016.63 1016.45 1016.47 1016.37 1016.55 1016.38
1023.88 1023.68 1023.63 1023.50 1023.31 1022.90 1022.33 1022.21 1022.14 1021.69 1021.37 1021.23 1021.06 1020.93 1020.75 1020.53 1020.58 1020.56 1020.52 1020.22 1019.83 1019.54 1019.19 1018.93 1018.61 1018.59 1018.51 1018.42 1018.23 1017.85 1017.61 1017.46 1017.33 1017.15 1016.82 1016.52 1016.26 1015.89 1015.53 1015.17 1014.98 1014.97 1014.73
1024.17 1024.31 1024.28 1024.23 1023.95 1023.51 1023.15 1022.99 1022.83 1022.51 1022.31 1022.26 1022.11 1021.87 1021.59 1021.37 1021.15 1021.09 1021.00 1020.57 1019.97 1019.58 1019.33 1019.25 1018.90 1018.64 1018.38 1018.21 1017.85 1017.75 1017.38 1017.27 1017.05 1017.00 1016.56 1015.95 1015.53 1015.10 1014.70 1014.49 1014.06 1013.85 1013.73
1024.80 1024.69 1024.53 1024.48 1024.44 1024.22 1023.97 1023.76 1023.62 1023.57 1023.41 1023.28 1022.97 1022.71 1022.35 1021.95 1021.98 1021.88 1021.31 1020.93 1020.42 1019.86 1019.50 1019.06 1018.79 1018.53 1018.23 1018.03 1017.58 1017.21 1017.07 1016.73 1016.69 1016.57 1016.14 1015.41 1015.09 1014.70 1014.35 1014.21 1013.91 1013.58 1013.48
1025.29 1025.33 1025.33 1025.07 1024.99 1024.71 1024.41 1024.31 1024.12 1024.19 1024.06 1023.95 1023.74 1023.40 1022.85 1022.66 1022.97 1022.99 1022.35 1021.50 1020.87 1020.31 1019.75 1018.99 1018.59 1018.39 1018.21 1017.95 1017.51 1017.25 1016.96 1016.61 1016.19 1015.97 1015.79 1015.20 1014.69 1014.21 1013.83 1013.63 1013.39 1013.11 1012.98
1025.54 1025.71 1025.73 1025.61 1025.39 1025.15 1025.26 1024.85 1024.39 1024.19 1024.19 1024.00 1023.95 1023.78 1023.27 1022.94 1023.09 1022.68 1021.97 1021.21 1020.69 1020.48 1019.81 1019.41 1018.85 1018.47 1018.20 1017.85 1017.53 1017.19 1016.97 1016.74 1016.47 1016.18 1015.69 1015.01 1014.47 1014.03 1013.56 1013.23 1013.06 1012.85 1012.52
1026.15 1026.17 1026.13 1025.86 1025.77 1025.62 1025.48 1025.37 1024.92 1024.37 1024.05 1023.98 1023.89 1023.66 1023.63 1023.57 1023.00 1022.50 1021.77 1021.22 1020.69 1020.32 1020.09 1019.42 1019.05 1018.51 1018.03 1017.83 1017.53 1017.53 1017.42 1017.36 1016.89 1016.53 1016.27 1015.82 1014.99 1014.26 1013.53 1012.99 1012.61 1012.30 1011.89
1026.29 1026.19 1026.39 1026.35 1026.39 1026.34 1026.21 1025.88 1025.63 1025.10 1024.43 1024.04 1023.76 1023.63 1023.25 1023.22 1022.87 1022.21 1021.94 1021.19 1020.66 1020.28 1020.04 1019.38 1018.80 1018.25 1017.88 1017.77 1017.79 1017.89 1017.87 1017.62 1017.21 1016.97 1016.53 1016.05 1015.43 1014.69 1013.87 1013.16 1012.50 1011.89 1011.38
1026.36 1026.37 1026.47 1026.56 1026.57 1026.48 1026.43 1026.20 1025.93 1025.78 1025.50 1025.13 1024.52 1024.05 1023.84 1023.51 1022.99 1022.45 1022.03 1021.91 1021.25 1020.51 1019.82 1019.27 1018.77 1018.50 1018.27 1018.31 1018.25 1018.07 1017.89 1017.65 1017.45 1017.14 1016.80 1016.34 1015.75 1015.15 1014.25 1013.43 1012.62 1011.83 1011.22
1026.30 1026.27 1026.48 1026.78 1026.78 1026.66 1026.61 1026.46 1026.19 1025.98 1025.76 1025.38 1024.81 1024.55 1024.03 1023.49 1022.97 1022.57 1022.35 1022.01 1021.46 1020.72 1019.84 1019.13 1018.75 1018.63 1018.55 1018.50 1018.36 1018.15 1017.87 1017.62 1017.33 1017.06 1016.78 1016.43 1015.88 1015.30 1014.53 1013.74 1013.07 1012.15 1011.03
1026.47 1026.61 1026.73 1027.01 1027.08 1027.13 1026.96 1026.79 1026.57 1026.20 1025.83 1025.47 1025.17 1024.83 1024.51 1023.96 1023.27 1022.80 1022.32 1022.02 1021.54 1020.96 1020.41 1019.72 1018.83 1018.35 1018.22 1018.13 1018.03 1017.93 1017.75 1017.49 1017.07 1016.81 1016.51 1016.18 1015.73 1015.16 1014.49 1013.89 1013.19 1012.38 1011.26
1026.29 1026.59 1026.79 1026.97 1027.01 1026.99 1026.90 1026.76 1026.68 1026.54 1026.28 1025.85 1025.31 1024.84 1024.38 1024.04 1023.57 1023.01 1022.47 1021.89 1021.20 1020.67 1020.29 1019.63 1018.86 1018.17 1017.87 1017.73 1017.69 1017.65 1017.47 1016.94 1016.71 1016.51 1016.13 1015.67 1015.29 1014.84 1014.35 1013.64 1012.88 1012.11 1011.17
1026.14 1026.48 1026.71 1026.92 1027.00 1026.99 1027.07 1026.90 1026.85 1026.68 1026.49 1026.12 1025.67 1025.07 1024.56 1024.19 1023.59 1023.02 1022.51 1022.03 1021.45 1020.67 1020.03 1019.47 1018.83 1018.15 1017.71 1017.51 1017.44 1017.34 1017.15 1016.67 1016.38 1016.12 1015.66 1015.11 1014.72 1014.26 1013.85 1013.23 1012.52 1011.74 1010.92
1025.75 1026.11 1026.46 1026.70 1026.87 1026.94 1027.03 1027.07 1026.85 1026.59 1026.47 1026.18 1025.67 1025.22 1024.82 1024.35 1023.88 1023.30 1022.64 1021.87 1021.14 1020.28 1019.61 1018.93 1018.19 1017.45 1017.15 1017.00 1016.87 1016.67 1016.36 1016.06 1015.82 1015.50 1015.18 1014.62 1014.06 1013.69 1013.25 1012.62 1011.87 1011.06 1010.27
1025.29 1025.75 1026.09 1026.40 1026.67 1026.86 1026.93 1026.89 1026.77 1026.71 1026.43 1026.03 1025.65 1025.30 1024.83 1024.25 1023.59 1022.97 1022.40 1021.76 1020.99 1020.14 1019.34 1018.60 1017.74 1017.07 1016.58 1016.29 1015.92 1015.53 1015.32 1015.17 1015.12 1014.91 1014.65 1014.33 1013.78 1012.95 1012.39 1011.82 1010.94 1010.13 1009.45
1024.89 1025.31 1025.65 1026.01 1026.35 1026.65 1026.93 1027.03 1026.89 1026.54 1026.20 1025.91 1025.41 1024.91 1024.49 1023.94 1023.25 1022.59 1021.97 1021.29 1020.47 1019.64 1018.77 1018.00 1017.38 1016.70 1016.06 1015.55 1015.07 1014.76 1014.53 1014.28 1014.02 1013.77 1013.69 1013.39 1012.77 1011.81 1011.07 1010.37 1009.67 1008.92 1008.11
Wind_Speed
3 3 2 3 3 3 4 5 6 4 5 7 6 6 6 5 5 4 4 3 4 4 3 4 5 2 2 1 1 0 0 2 2 3 2 2 3 4 6 5 5 5 5
5 3 1 2 1 3 4 5 5 6 5 6 5 6 6 5 5 5 5 4 5 5 5 5 6 3 4 3 2 2 2 2 2 3 2 3 3 3 3 4 4 4 5
4 5 5 5 5 4 3 4 4 5 5 5 4 6 6 6 6 6 6 6 6 6 6 5 6 4 5 3 3 3 3 2 2 2 3 2 3 2 2 3 3 4 4
1 3 1 2 5 5 5 5 5 3 4 5 6 6 6 6 5 5 5 6 6 6 6 6 6 6 7 6 4 5 3 2 2 2 3 3 3 3 2 2 5 2 5
6 7 1 4 3 3 4 5 6 7 5 5 5 6 5 5 5 7 7 7 7 7 6 6 6 7 10 8 4 5 4 4 3 3 3 2 3 3 2 1 3 3 4
4 3 3 6 4 4 2 3 4 5 6 5 5 6 7 7 10 12 8 6 7 7 7 7 7 8 9 11 11 13 8 5 5 3 3 4 5 3 2 2 2 2 4
9 9 9 4 1 2 2 3 2 4 4 5 5 4 6 7 11 12 12 6 6 7 7 6 6 6 9 7 9 11 10 11 13 5 6 6 4 5 3 2 4 4 4
11 10 9 8 7 6 5 5 6 4 3 5 5 5 4 4 6 9 10 6 6 7 7 7 8 9 7 7 7 7 7 7 7 6 9 9 8 8 6 5 4 4 3
11 9 8 8 7 7 6 5 4 5 3 4 4 6 5 5 7 9 6 4 6 8 7 8 9 10 10 12 7 9 9 9 7 12 13 14 13 11 6 2 5 2 6
8 6 6 7 6 6 5 5 4 4 3 3 4 5 7 6 6 10 6 3 7 5 5 7 11 12 11 11 8 8 9 9 6 6 5 7 10 9 11 9 6 6 6
6 6 7 8 7 7 5 4 4 4 3 6 7 6 6 6 8 14 13 4 4 5 4 5 2 8 9 10 11 7 9 1 4 5 5 6 6 5 5 7 9 8 7
6 7 7 7 6 7 7 7 7 7 8 8 7 6 5 8 8 8 8 6 5 3 4 4 4 8 10 11 8 12 12 7 3 4 4 6 6 7 7 8 10 10 10
7 7 6 6 7 7 7 7 7 7 7 7 6 5 7 6 7 12 13 12 8 4 3 5 7 11 13 10 8 9 10 4 4 4 7 8 7 8 9 6 6 9 11
6 7 6 6 6 6 5 5 5 6 6 5 6 6 5 5 8 10 9 8 8 7 6 5 6 8 9 9 7 5 4 4 4 5 5 6 6 5 7 7 9 7 5
5 5 6 5 6 6 5 4 4 3 3 3 4 4 5 6 8 9 6 8 7 8 10 4 3 2 4 4 4 4 4 4 4 5 6 7 7 7 7 6 6 6 6
6 5 4 4 4 4 4 5 6 3 8 8 4 3 5 4 10 12 14 15 10 9 3 4 5 4 4 4 4 4 3 4 5 7 7 7 7 7 8 7 4 6 8
5 4 4 5 5 5 5 5 7 5 6 7 7 9 5 5 13 16 14 14 5 4 2 4 5 6 4 4 2 4 4 4 5 5 7 8 8 9 9 8 7 7 8
4 7 4 4 4 4 4 5 5 7 9 9 9 12 12 14 15 15 11 10 6 3 3 6 7 6 5 2 2 2 6 5 4 5 5 6 8 9 9 9 9 9 9
3 3 4 4 4 5 4 4 4 5 5 6 7 5 8 9 13 12 11 6 7 7 8 7 5 5 4 4 4 3 4 4 6 8 7 6 7 8 10 10 10 11 10
4 9 7 4 4 4 4 5 6 6 6 6 7 8 10 13 10 9 7 6 7 8 9 5 3 2 2 3 3 4 4 5 5 7 8 7 7 6 9 10 11 13 11
4 3 6 4 3 3 3 4 5 6 6 7 7 8 16 11 10 9 8 7 8 9 9 11 9 4 3 4 3 4 5 6 5 8 7 9 8 9 9 8 11 12 13
4 3 2 3 3 4 4 4 4 4 6 8 9 9 17 9 9 9 10 10 10 10 9 9 11 9 6 4 4 6 7 7 7 7 10 8 9 10 10 10 10 11 12
5 4 3 1 1 4 3 3 4 4 6 7 8 9 9 9 10 11 12 11 12 11 10 10 12 11 5 4 4 6 9 9 9 8 10 10 9 9 10 11 11 11 12
5 5 4 2 1 2 2 3 4 5 6 7 8 9 10 10 11 12 12 12 12 13 11 11 11 15 9 7 7 8 9 10 9 9 12 11 10 11 10 11 11 13 13
5 5 4 3 2 2 3 4 4 4 6 6 7 8 9 11 11 11 11 12 12 13 14 14 11 12 14 16 16 15 14 15 14 15 10 11 15 16 13 11 13 13 16
6 6 5 4 4 4 4 4 4 4 5 7 7 7 8 9 9 10 11 12 12 13 16 13 14 19 19 15 15 16 12 13 14 15 12 12 13 12 11 14 18 13 16
Wind_Direction
230 207 195 255 241 213 211 211 219 211 204 223 207 206 211 213 210 199 238 241 236 241 225 221 247 259 276 240 198 206 138 154 156 298 271 298 302 329 332 335 357 355 344
30 352 8 48 327 258 258 245 231 243 207 216 198 204 207 210 214 200 224 232 235 242 245 217 245 243 252 242 197 217 215 235 162 255 275 284 261 286 283 299 339 342 346
85 71 29 64 71 34 313 290 275 254 245 206 192 212 215 217 214 213 213 224 235 239 244 234 247 237 263 253 241 231 199 210 207 207 273 272 273 289 309 286 300 321 321
95 346 243 71 81 65 22 11 30 297 248 230 215 216 220 218 218 230 221 225 238 244 252 251 241 215 233 249 246 262 265 269 216 226 255 267 255 292 289 305 325 338 316
176 230 303 255 169 93 19 350 7 8 310 234 221 230 238 222 220 219 220 223 227 241 247 258 257 246 235 234 216 255 219 234 245 244 266 252 268 298 278 256 259 294 293
102 51 319 283 19 47 357 309 316 350 351 319 248 221 220 229 228 223 210 215 218 222 243 246 247 264 268 259 244 244 229 228 247 197 236 243 257 241 240 256 249 334 323
59 45 21 16 46 315 253 237 304 337 332 325 307 270 250 235 227 223 226 231 227 228 225 245 257 247 239 251 256 250 249 233 228 221 232 232 248 235 206 247 230 208 234
48 41 21 19 32 24 29 21 28 8 320 316 325 299 316 289 304 269 254 234 231 232 231 227 238 256 239 230 246 260 258 250 233 214 227 248 232 255 204 222 226 241 269
39 30 23 24 26 19 14 33 26 7 331 305 308 326 347 332 321 322 317 259 245 244 232 225 226 246 250 235 237 250 261 261 243 233 229 238 242 251 253 140 268 218 291
18 8 12 22 31 22 0 8 4 290 318 302 316 0 16 353 341 347 310 269 276 271 262 248 230 235 238 237 223 241 256 259 248 266 271 263 249 252 236 211 242 248 262
15 14 19 17 18 16 4 359 343 358 355 35 39 18 32 32 9 13 3 333 298 298 286 308 346 16 336 274 214 223 238 281 289 288 269 269 267 246 242 214 215 220 241
32 36 24 16 17 8 19 19 19 21 28 24 21 8 1 2 8 358 351 357 334 339 339 328 332 311 312 292 286 286 275 280 253 258 254 262 262 260 244 228 223 221 230
37 35 29 15 14 10 21 18 20 19 30 21 18 9 353 350 355 349 336 328 335 338 318 311 302 289 287 293 280 273 271 263 269 263 267 274 268 272 274 265 251 235 241
38 24 19 29 15 19 21 21 30 32 11 6 7 4 346 3 13 3 351 333 329 332 331 311 285 280 270 265 297 305 298 262 253 259 267 273 279 273 268 266 271 265 241
41 24 19 24 18 8 12 8 18 13 360 344 343 345 350 7 353 313 318 340 328 319 320 304 329 327 322 315 314 295 296 289 293 284 278 276 277 278 273 263 251 258 243
42 25 16 21 12 13 358 353 347 332 346 350 346 250 346 304 323 346 354 348 341 338 310 300 301 292 296 305 305 303 300 314 345 336 320 301 289 282 280 276 255 255 255
67 39 15 17 9 10 7 2 350 346 338 2 1 341 347 331 352 343 347 336 328 329 291 298 286 285 274 268 293 11 343 327 312 329 340 327 316 313 292 287 274 259 259
68 47 42 26 17 9 3 357 349 347 343 343 349 344 347 349 341 333 338 322 348 349 301 293 294 290 287 2 18 353 318 316 331 332 312 317 320 316 314 308 298 282 274
77 52 51 27 15 14 354 351 356 350 340 329 329 337 334 333 326 331 341 340 323 319 326 337 354 6 13 351 331 321 307 307 315 314 313 306 313 318 310 304 299 290 281
64 72 63 42 16 7 360 359 353 349 340 337 339 336 336 340 341 338 331 325 318 315 311 295 282 283 305 311 302 308 301 307 306 309 305 301 298 296 299 311 311 306 294
120 85 76 55 30 2 355 348 340 337 334 333 327 329 334 331 322 318 319 319 312 307 306 311 301 265 250 254 269 283 283 280 278 294 292 293 296 296 293 290 294 295 292
124 119 83 50 13 2 349 354 341 330 338 333 328 326 332 329 321 318 319 314 308 303 298 294 297 282 258 257 272 278 281 283 281 276 283 284 288 287 287 285 285 289 290
142 139 117 72 15 348 340 335 349 330 323 321 323 324 326 322 319 318 314 311 305 300 294 292 296 292 280 272 268 270 275 275 272 274 275 278 276 275 281 282 282 281 281
159 156 157 172 316 331 333 332 309 313 319 317 318 321 318 315 312 311 310 307 303 299 295 286 278 278 272 278 280 274 275 274 273 271 274 274 273 275 270 270 271 272 273
166 162 170 192 211 259 288 298 302 313 305 300 304 307 306 311 310 305 307 304 301 299 296 291 296 297 288 289 286 281 269 258 258 265 269 268 268 265 262 264 266 268 268
173 178 183 185 199 207 225 248 253 260 294 297 285 298 300 302 302 304 303 300 298 296 296 294 289 285 286 285 282 279 274 271 271 263 257 257 258 259 256 257 261 261 264